RPA4598 KLGA-KDTW

Flight info

Callsign RPA4598
Flight time 1h 25m
Altitude 34000
Route GAYEL J95 CFB TRAAD JACCI FERRL2
Aircraft E170/M-SDE3GILORVW/S

Departure

Time 2026-05-06 00:30
Airport LaGuardia Airport (KLGA)

Arrival

Time 2026-05-06 01:56
Airport Detroit Metropolitan Wayne County Airport (KDTW)
Time Latitude Longitude Altitude Speed Heading
2026-05-06 00:05 40.77512 -73.87153 17 ft 0 kts 325°
2026-05-06 00:20 40.77501 -73.87144 17 ft 4 kts 326°
2026-05-06 00:20 40.77483 -73.87128 17 ft 4 kts 329°
2026-05-06 00:20 40.77459 -73.87121 19 ft 4 kts 14°
2026-05-06 00:20 40.77447 -73.87128 18 ft 3 kts 32°
2026-05-06 00:21 40.77452 -73.87124 19 ft 0 kts 32°
2026-05-06 00:23 40.77453 -73.87123 19 ft 1 kts 32°
2026-05-06 00:23 40.77467 -73.87111 17 ft 4 kts 32°
2026-05-06 00:23 40.77494 -73.87088 17 ft 6 kts 32°
2026-05-06 00:23 40.77528 -73.87061 18 ft 0 kts 31°
2026-05-06 00:24 40.77530 -73.87060 17 ft 1 kts 31°
2026-05-06 00:24 40.77545 -73.87047 17 ft 5 kts 32°
2026-05-06 00:24 40.77586 -73.87013 18 ft 10 kts 32°
2026-05-06 00:25 40.77661 -73.86998 11 ft 10 kts
2026-05-06 00:25 40.77714 -73.87008 10 ft 8 kts 309°
2026-05-06 00:25 40.77745 -73.87074 11 ft 9 kts 302°
2026-05-06 00:25 40.77782 -73.87150 11 ft 11 kts 302°
2026-05-06 00:26 40.77824 -73.87240 11 ft 12 kts 302°
2026-05-06 00:26 40.77872 -73.87341 12 ft 13 kts 302°
2026-05-06 00:26 40.77911 -73.87422 13 ft 7 kts 302°
2026-05-06 00:26 40.77916 -73.87433 13 ft 0 kts 301°
2026-05-06 00:27 40.77924 -73.87449 14 ft 4 kts 302°
2026-05-06 00:27 40.77947 -73.87498 14 ft 8 kts 302°
2026-05-06 00:27 40.77985 -73.87579 13 ft 13 kts 302°
2026-05-06 00:28 40.78044 -73.87699 13 ft 14 kts 302°
2026-05-06 00:28 40.78091 -73.87798 15 ft 11 kts 302°
2026-05-06 00:28 40.78140 -73.87857 26 ft 8 kts 349°
2026-05-06 00:28 40.78197 -73.87864 17 ft 8 kts 27°
2026-05-06 00:29 40.78211 -73.87812 17 ft 3 kts 125°
2026-05-06 00:29 40.78210 -73.87810 17 ft 0 kts 122°
2026-05-06 00:29 40.78206 -73.87802 19 ft 13 kts 122°
2026-05-06 00:30 40.78000 -73.87374 12 ft 95 kts 122°
2026-05-06 00:30 40.77532 -73.86376 118 ft 151 kts 128°
2026-05-06 00:30 40.76962 -73.85168 907 ft 160 kts 131°
2026-05-06 00:30 40.76231 -73.83953 1566 ft 176 kts 153°
2026-05-06 00:31 40.75159 -73.83321 2310 ft 160 kts 178°
2026-05-06 00:31 40.74036 -73.83019 2847 ft 174 kts 178°
2026-05-06 00:31 40.72802 -73.82774 3599 ft 180 kts 184°
2026-05-06 00:31 40.71581 -73.82917 4364 ft 181 kts 204°
2026-05-06 00:32 40.70443 -73.83790 4782 ft 193 kts 227°
2026-05-06 00:32 40.69571 -73.85145 5049 ft 198 kts 232°
2026-05-06 00:32 40.68704 -73.86510 5020 ft 192 kts 232°
2026-05-06 00:32 40.67892 -73.87919 4978 ft 194 kts 243°
2026-05-06 00:33 40.67499 -73.89741 5361 ft 219 kts 264°
2026-05-06 00:33 40.67672 -73.91795 6329 ft 236 kts 282°
2026-05-06 00:33 40.68484 -73.93757 7207 ft 255 kts 304°
2026-05-06 00:33 40.69728 -73.95478 8140 ft 265 kts 313°
2026-05-06 00:34 40.71332 -73.96794 9054 ft 278 kts 330°
2026-05-06 00:34 40.73238 -73.97480 9986 ft 291 kts 347°
2026-05-06 00:34 40.75300 -73.97817 10588 ft 307 kts 347°
2026-05-06 00:34 40.77472 -73.98184 11180 ft 320 kts 347°
2026-05-06 00:35 40.79704 -73.98571 11970 ft 327 kts 347°
2026-05-06 00:35 40.81976 -73.98973 12879 ft 331 kts 347°
2026-05-06 00:35 40.84279 -73.99387 13813 ft 337 kts 347°
2026-05-06 00:35 40.86620 -73.99810 14723 ft 342 kts 347°
2026-05-06 00:36 40.88983 -74.00219 15664 ft 346 kts 347°
2026-05-06 00:36 40.91380 -74.00617 16655 ft 346 kts 347°
2026-05-06 00:36 40.93815 -74.01010 17060 ft 361 kts 347°
2026-05-06 00:36 40.96275 -74.01413 16964 ft 359 kts 347°
2026-05-06 00:37 40.98744 -74.01813 16975 ft 358 kts 347°
2026-05-06 00:37 41.01214 -74.02212 16990 ft 358 kts 347°
2026-05-06 00:37 41.03686 -74.02615 16976 ft 357 kts 346°
2026-05-06 00:37 41.05953 -74.03677 17421 ft 339 kts 322°
2026-05-06 00:38 41.07898 -74.05459 18287 ft 341 kts 318°
2026-05-06 00:38 41.09840 -74.07307 19010 ft 346 kts 319°
2026-05-06 00:38 41.11823 -74.09167 19725 ft 352 kts 319°
2026-05-06 00:38 41.13841 -74.11054 20432 ft 358 kts 319°
2026-05-06 00:39 41.15891 -74.12972 21113 ft 363 kts 319°
2026-05-06 00:39 41.17968 -74.14918 21770 ft 368 kts 319°
2026-05-06 00:39 41.20073 -74.16897 22383 ft 373 kts 319°
2026-05-06 00:39 41.22205 -74.18908 22983 ft 378 kts 319°
2026-05-06 00:40 41.24367 -74.20944 23529 ft 383 kts 319°
2026-05-06 00:40 41.26539 -74.23010 24052 ft 385 kts 319°
2026-05-06 00:40 41.28725 -74.25093 24592 ft 387 kts 319°
2026-05-06 00:40 41.30917 -74.27191 25040 ft 389 kts 319°
2026-05-06 00:41 41.33123 -74.29309 25007 ft 390 kts 319°
2026-05-06 00:41 41.35320 -74.31416 24965 ft 388 kts 319°
2026-05-06 00:41 41.37505 -74.33516 24970 ft 387 kts 319°
2026-05-06 00:41 41.39596 -74.35742 24959 ft 380 kts 309°
2026-05-06 00:42 41.41185 -74.38510 24999 ft 375 kts 298°
2026-05-06 00:42 41.42578 -74.41439 25005 ft 374 kts 297°
2026-05-06 00:42 41.43965 -74.44370 25012 ft 374 kts 297°
2026-05-06 00:42 41.45341 -74.47261 25486 ft 363 kts 297°
2026-05-06 00:43 41.46683 -74.50090 25874 ft 358 kts 296°
2026-05-06 00:43 41.47996 -74.52905 26084 ft 368 kts 296°
2026-05-06 00:43 41.49333 -74.55780 26218 ft 360 kts 296°
2026-05-06 00:43 41.50586 -74.58613 27060 ft 353 kts 295°
2026-05-06 00:44 41.51803 -74.61456 27715 ft 353 kts 295°
2026-05-06 00:44 41.53023 -74.64302 28298 ft 353 kts 295°
2026-05-06 00:44 41.54249 -74.67156 28795 ft 355 kts 295°
2026-05-06 00:44 41.55489 -74.70049 28979 ft 364 kts 295°
2026-05-06 00:45 41.56757 -74.73002 28989 ft 367 kts 295°
2026-05-06 00:45 41.59269 -74.78855 30116 ft 354 kts 295°
2026-05-06 00:45 41.60480 -74.81681 30820 ft 347 kts 295°
2026-05-06 00:46 41.61672 -74.84467 31417 ft 344 kts 295°
2026-05-06 00:46 41.62853 -74.87226 31933 ft 341 kts 295°
2026-05-06 00:46 41.64026 -74.89974 32388 ft 341 kts 295°
2026-05-06 00:46 41.65203 -74.92735 32737 ft 342 kts 295°
2026-05-06 00:47 41.66383 -74.95500 33129 ft 342 kts 295°
2026-05-06 00:47 41.67562 -74.98269 33475 ft 343 kts 295°
2026-05-06 00:47 41.68744 -75.01046 33806 ft 344 kts 295°
2026-05-06 00:47 41.69925 -75.03822 33974 ft 342 kts 296°
2026-05-06 00:48 41.71103 -75.06591 34024 ft 344 kts 296°
2026-05-06 00:48 41.73460 -75.12146 34003 ft 344 kts 296°
2026-05-06 00:49 41.75831 -75.17747 34028 ft 347 kts 296°
2026-05-06 00:49 41.78198 -75.23344 34005 ft 348 kts 296°
2026-05-06 00:50 41.80576 -75.28976 33960 ft 347 kts 295°
2026-05-06 00:50 41.82952 -75.34617 33966 ft 347 kts 295°
2026-05-06 00:51 41.85323 -75.40259 33960 ft 347 kts 295°
2026-05-06 00:51 41.87702 -75.45925 33965 ft 351 kts 295°
2026-05-06 00:52 41.90100 -75.51651 33961 ft 352 kts 295°
2026-05-06 00:52 41.92494 -75.57379 33964 ft 352 kts 295°
2026-05-06 00:53 41.94883 -75.63113 33970 ft 352 kts 295°
2026-05-06 00:53 41.97268 -75.68855 33958 ft 352 kts 295°
2026-05-06 00:54 41.99653 -75.74600 33960 ft 352 kts 295°
2026-05-06 00:54 42.02059 -75.80417 34004 ft 363 kts 295°
2026-05-06 00:55 42.04570 -75.86497 33973 ft 381 kts 295°
2026-05-06 00:55 42.07178 -75.92819 33953 ft 395 kts 295°
2026-05-06 00:56 42.09869 -75.99356 33948 ft 402 kts 295°
2026-05-06 00:56 42.12588 -76.05973 33948 ft 404 kts 295°
2026-05-06 00:57 42.15191 -76.12671 33954 ft 401 kts 287°
2026-05-06 00:57 42.15836 -76.16306 33968 ft 396 kts 276°
2026-05-06 00:57 42.16156 -76.19989 33946 ft 395 kts 275°
2026-05-06 00:58 42.16758 -76.27354 33951 ft 395 kts 275°
2026-05-06 00:58 42.17339 -76.34721 33939 ft 395 kts 275°
2026-05-06 00:59 42.17902 -76.42036 33945 ft 395 kts 275°
2026-05-06 00:59 42.18462 -76.49415 33944 ft 395 kts 275°
2026-05-06 01:00 42.19014 -76.56761 33946 ft 393 kts 274°
2026-05-06 01:00 42.19558 -76.64101 33951 ft 393 kts 274°
2026-05-06 01:01 42.20008 -76.70214 33956 ft 394 kts 274°
2026-05-06 01:01 42.20544 -76.77567 33953 ft 393 kts 274°
2026-05-06 01:02 42.21075 -76.84910 33946 ft 393 kts 274°
2026-05-06 01:02 42.21602 -76.92253 33955 ft 392 kts 274°
2026-05-06 01:03 42.22119 -76.99549 33954 ft 392 kts 274°
2026-05-06 01:03 42.22634 -77.06878 33951 ft 392 kts 274°
2026-05-06 01:04 42.23146 -77.14204 33952 ft 392 kts 274°
2026-05-06 01:04 42.23652 -77.21530 33947 ft 392 kts 274°
2026-05-06 01:05 42.24155 -77.28824 33955 ft 389 kts 274°
2026-05-06 01:05 42.24651 -77.36102 33952 ft 389 kts 274°
2026-05-06 01:06 42.25144 -77.43383 33956 ft 390 kts 274°
2026-05-06 01:06 42.25633 -77.50665 33959 ft 389 kts 275°
2026-05-06 01:07 42.26765 -77.57830 33966 ft 391 kts 281°
2026-05-06 01:07 42.28046 -77.64974 33963 ft 391 kts 281°
2026-05-06 01:08 42.29324 -77.72072 33980 ft 392 kts 281°
2026-05-06 01:08 42.30606 -77.79216 33985 ft 391 kts 281°
2026-05-06 01:09 42.31887 -77.86373 33961 ft 392 kts 281°
2026-05-06 01:09 42.33167 -77.93537 33980 ft 391 kts 281°
2026-05-06 01:10 42.34435 -78.00662 33995 ft 386 kts 281°
2026-05-06 01:10 42.35688 -78.07734 33997 ft 387 kts 281°
2026-05-06 01:11 42.36939 -78.14821 34007 ft 387 kts 281°
2026-05-06 01:11 42.38186 -78.21913 34007 ft 387 kts 281°
2026-05-06 01:12 42.39430 -78.29011 34014 ft 387 kts 281°
2026-05-06 01:12 42.40659 -78.36056 34014 ft 387 kts 281°
2026-05-06 01:13 42.41894 -78.43158 34013 ft 387 kts 281°
2026-05-06 01:13 42.43124 -78.50255 34009 ft 388 kts 281°
2026-05-06 01:14 42.44964 -78.60924 34012 ft 388 kts 281°
2026-05-06 01:14 42.46184 -78.68042 34014 ft 387 kts 281°
2026-05-06 01:15 42.47042 -78.75164 34037 ft 382 kts 272°
2026-05-06 01:15 42.47308 -78.82363 33999 ft 382 kts 272°
2026-05-06 01:16 42.47552 -78.89501 34009 ft 382 kts 272°
2026-05-06 01:16 42.47790 -78.96686 34009 ft 382 kts 271°
2026-05-06 01:17 42.48021 -79.03882 34014 ft 382 kts 271°
2026-05-06 01:17 42.48246 -79.11057 34026 ft 381 kts 271°
2026-05-06 01:18 42.48466 -79.18235 34019 ft 381 kts 271°
2026-05-06 01:18 42.48681 -79.25410 34023 ft 381 kts 271°
2026-05-06 01:19 42.48892 -79.32581 34020 ft 381 kts 271°
2026-05-06 01:19 42.49099 -79.39757 34020 ft 381 kts 271°
2026-05-06 01:20 42.49300 -79.46925 34022 ft 380 kts 271°
2026-05-06 01:20 42.49497 -79.54088 34017 ft 381 kts 271°
2026-05-06 01:21 42.49689 -79.61210 34023 ft 380 kts 271°
2026-05-06 01:21 42.49878 -79.68383 34023 ft 380 kts 271°
2026-05-06 01:22 42.50062 -79.75556 34017 ft 380 kts 271°
2026-05-06 01:22 42.50247 -79.82714 34008 ft 378 kts 271°
2026-05-06 01:23 42.50424 -79.89823 34015 ft 377 kts 271°
2026-05-06 01:23 42.50601 -79.96931 34014 ft 377 kts 271°
2026-05-06 01:24 42.50773 -80.04004 34011 ft 377 kts 271°
2026-05-06 01:24 42.50936 -80.11111 34013 ft 377 kts 271°
2026-05-06 01:25 42.51097 -80.18207 34005 ft 375 kts 271°
2026-05-06 01:25 42.51252 -80.25257 34006 ft 374 kts 271°
2026-05-06 01:26 42.51406 -80.32297 34004 ft 374 kts 271°
2026-05-06 01:26 42.51554 -80.39337 34003 ft 374 kts 271°
2026-05-06 01:27 42.51696 -80.46375 33999 ft 373 kts 271°
2026-05-06 01:27 42.51834 -80.53420 34003 ft 373 kts 271°
2026-05-06 01:28 42.51965 -80.60387 34001 ft 368 kts 271°
2026-05-06 01:28 42.52030 -80.67288 34006 ft 368 kts 270°
2026-05-06 01:29 42.52075 -80.74229 34002 ft 368 kts 270°
2026-05-06 01:29 42.52130 -80.81176 34002 ft 368 kts 271°
2026-05-06 01:30 42.52187 -80.87957 33917 ft 344 kts 270°
2026-05-06 01:30 42.52215 -80.91198 33119 ft 343 kts 270°
2026-05-06 01:30 42.52241 -80.94345 32804 ft 330 kts 270°
2026-05-06 01:31 42.52266 -80.97429 32361 ft 323 kts 270°
2026-05-06 01:31 42.52290 -81.00454 31910 ft 321 kts 269°
2026-05-06 01:31 42.52313 -81.03494 31508 ft 323 kts 269°
2026-05-06 01:31 42.52336 -81.06575 31049 ft 328 kts 269°
2026-05-06 01:32 42.52359 -81.09689 30624 ft 332 kts 269°
2026-05-06 01:32 42.52381 -81.12837 30167 ft 336 kts 268°
2026-05-06 01:32 42.52402 -81.16016 29699 ft 339 kts 268°
2026-05-06 01:32 42.52423 -81.19218 29283 ft 340 kts 268°
2026-05-06 01:33 42.52443 -81.22437 28808 ft 343 kts 268°
2026-05-06 01:33 42.52462 -81.25680 28363 ft 345 kts 268°
2026-05-06 01:33 42.52481 -81.28946 27920 ft 347 kts 268°
2026-05-06 01:33 42.52499 -81.32217 27426 ft 347 kts 268°
2026-05-06 01:34 42.52516 -81.35475 26978 ft 345 kts 268°
2026-05-06 01:34 42.52476 -81.38708 26528 ft 342 kts 263°
2026-05-06 01:34 42.52220 -81.41905 26065 ft 340 kts 262°
2026-05-06 01:34 42.51966 -81.45092 25618 ft 339 kts 262°
2026-05-06 01:35 42.51717 -81.48262 25171 ft 337 kts 262°
2026-05-06 01:35 42.51473 -81.51415 24724 ft 336 kts 262°
2026-05-06 01:35 42.51231 -81.54566 24275 ft 335 kts 261°
2026-05-06 01:35 42.50991 -81.57701 23834 ft 334 kts 261°
2026-05-06 01:36 42.50752 -81.60830 23374 ft 333 kts 261°
2026-05-06 01:36 42.50514 -81.63941 22938 ft 330 kts 261°
2026-05-06 01:36 42.50282 -81.66985 22507 ft 327 kts 261°
2026-05-06 01:36 42.50049 -81.70039 22070 ft 324 kts 261°
2026-05-06 01:37 42.49818 -81.73059 21647 ft 322 kts 261°
2026-05-06 01:37 42.49587 -81.76069 21224 ft 320 kts 261°
2026-05-06 01:37 42.49356 -81.79066 20794 ft 319 kts 261°
2026-05-06 01:37 42.49125 -81.82053 20373 ft 317 kts 261°
2026-05-06 01:38 42.48893 -81.85016 19953 ft 316 kts 261°
2026-05-06 01:38 42.48663 -81.87966 19535 ft 314 kts 261°
2026-05-06 01:38 42.48432 -81.90904 19117 ft 312 kts 261°
2026-05-06 01:38 42.48203 -81.93825 18700 ft 311 kts 261°
2026-05-06 01:39 42.47973 -81.96731 18290 ft 310 kts 261°
2026-05-06 01:39 42.47745 -81.99621 17855 ft 308 kts 261°
2026-05-06 01:39 42.47517 -82.02489 17469 ft 306 kts 261°
2026-05-06 01:39 42.47288 -82.05361 17060 ft 305 kts 261°
2026-05-06 01:40 42.47063 -82.08180 16663 ft 304 kts 261°
2026-05-06 01:40 42.46835 -82.11023 16259 ft 303 kts 261°
2026-05-06 01:40 42.46607 -82.13857 15856 ft 302 kts 261°
2026-05-06 01:40 42.46379 -82.16679 15455 ft 301 kts 261°
2026-05-06 01:41 42.46152 -82.19490 15062 ft 299 kts 261°
2026-05-06 01:41 42.45923 -82.22315 14646 ft 295 kts 261°
2026-05-06 01:41 42.45703 -82.25029 14251 ft 287 kts 261°
2026-05-06 01:41 42.45487 -82.27676 13890 ft 278 kts 260°
2026-05-06 01:42 42.45277 -82.30250 13489 ft 272 kts 260°
2026-05-06 01:42 42.45071 -82.32765 13158 ft 264 kts 260°
2026-05-06 01:42 42.44813 -82.35166 12831 ft 259 kts 257°
2026-05-06 01:42 42.44505 -82.37602 12490 ft 259 kts 258°
2026-05-06 01:43 42.44211 -82.39980 12159 ft 260 kts 258°
2026-05-06 01:43 42.43915 -82.42395 11785 ft 259 kts 258°
2026-05-06 01:43 42.43621 -82.44798 11449 ft 258 kts 258°
2026-05-06 01:43 42.43334 -82.47192 11109 ft 258 kts 259°
2026-05-06 01:44 42.43142 -82.49605 10771 ft 258 kts 262°
2026-05-06 01:44 42.42978 -82.52029 10421 ft 258 kts 262°
2026-05-06 01:44 42.42817 -82.54449 10081 ft 258 kts 262°
2026-05-06 01:44 42.42657 -82.56870 9733 ft 258 kts 262°
2026-05-06 01:45 42.42547 -82.58507 9487 ft 258 kts 262°
2026-05-06 01:45 42.42382 -82.60885 9145 ft 257 kts 262°
2026-05-06 01:45 42.42209 -82.63278 8930 ft 251 kts 262°
2026-05-06 01:45 42.42035 -82.65619 8950 ft 250 kts 262°
2026-05-06 01:46 42.41864 -82.67972 8952 ft 249 kts 262°
2026-05-06 01:46 42.41696 -82.70253 8888 ft 239 kts 262°
2026-05-06 01:46 42.41537 -82.72453 8629 ft 235 kts 262°
2026-05-06 01:46 42.41370 -82.74683 8222 ft 241 kts 262°
2026-05-06 01:47 42.41188 -82.76946 8022 ft 239 kts 262°
2026-05-06 01:47 42.41006 -82.79131 7909 ft 229 kts 262°
2026-05-06 01:47 42.40827 -82.81233 7748 ft 221 kts 262°
2026-05-06 01:47 42.40651 -82.83274 7559 ft 215 kts 262°
2026-05-06 01:48 42.40472 -82.85320 7118 ft 226 kts 262°
2026-05-06 01:48 42.40267 -82.87496 6687 ft 239 kts 262°
2026-05-06 01:48 42.40039 -82.89768 6270 ft 248 kts 262°
2026-05-06 01:48 42.39797 -82.92090 5823 ft 250 kts 262°
2026-05-06 01:49 42.39547 -82.94414 5384 ft 250 kts 262°
2026-05-06 01:49 42.39294 -82.96714 4948 ft 251 kts 262°
2026-05-06 01:49 42.39017 -82.99047 4511 ft 252 kts 262°
2026-05-06 01:49 42.38729 -83.01380 4063 ft 249 kts 263°
2026-05-06 01:50 42.38439 -83.03661 3615 ft 243 kts 262°
2026-05-06 01:50 42.38156 -83.05889 3176 ft 239 kts 262°
2026-05-06 01:50 42.37880 -83.08050 3013 ft 223 kts 262°
2026-05-06 01:50 42.37610 -83.10049 3263 ft 208 kts 262°
2026-05-06 01:51 42.37347 -83.12036 3222 ft 224 kts 262°
2026-05-06 01:51 42.37061 -83.14068 3149 ft 213 kts 261°
2026-05-06 01:51 42.36758 -83.15957 3316 ft 200 kts 259°
2026-05-06 01:51 42.36465 -83.17573 3308 ft 215 kts 258°
2026-05-06 01:52 42.36090 -83.19554 3003 ft 217 kts 258°
2026-05-06 01:52 42.35703 -83.21493 2878 ft 211 kts 257°
2026-05-06 01:52 42.35301 -83.23368 2801 ft 206 kts 252°
2026-05-06 01:52 42.34377 -83.24874 2541 ft 220 kts 211°
2026-05-06 01:53 42.32940 -83.25538 2528 ft 215 kts 200°
2026-05-06 01:53 42.31568 -83.26280 2676 ft 210 kts 207°
2026-05-06 01:53 42.30294 -83.27118 2881 ft 198 kts 212°
2026-05-06 01:53 42.29118 -83.28031 2821 ft 193 kts 215°
2026-05-06 01:54 42.27963 -83.28949 2532 ft 192 kts 214°
2026-05-06 01:54 42.26825 -83.29796 2164 ft 179 kts 212°
2026-05-06 01:54 42.25789 -83.30554 1765 ft 166 kts 214°
2026-05-06 01:54 42.24828 -83.31287 1417 ft 148 kts 213°
2026-05-06 01:55 42.23974 -83.31925 1147 ft 136 kts 211°
2026-05-06 01:55 42.23167 -83.32520 947 ft 129 kts 211°
2026-05-06 01:55 42.22405 -83.33086 784 ft 123 kts 211°
2026-05-06 01:55 42.21668 -83.33628 642 ft 112 kts 209°
2026-05-06 01:56 42.21117 -83.34033 645 ft 57 kts 209°
2026-05-06 01:56 42.20851 -83.34231 645 ft 41 kts 208°
2026-05-06 01:56 42.20646 -83.34422 645 ft 25 kts 227°
2026-05-06 01:56 42.20569 -83.34570 646 ft 11 kts 252°
2026-05-06 01:57 42.20596 -83.34647 645 ft 10 kts 336°
2026-05-06 01:57 42.20659 -83.34625 645 ft 11 kts 31°
2026-05-06 01:57 42.20742 -83.34564 646 ft 17 kts 28°
2026-05-06 01:57 42.20851 -83.34484 645 ft 19 kts 29°
2026-05-06 01:58 42.20970 -83.34396 646 ft 19 kts 27°
2026-05-06 01:58 42.21047 -83.34450 645 ft 12 kts 299°
2026-05-06 01:58 42.21092 -83.34558 645 ft 15 kts 298°
2026-05-06 01:58 42.21148 -83.34698 644 ft 19 kts 298°
2026-05-06 01:59 42.21219 -83.34865 641 ft 15 kts 298°
2026-05-06 01:59 42.21284 -83.34929 643 ft 12 kts
2026-05-06 01:59 42.21350 -83.34964 647 ft 9 kts 329°
2026-05-06 01:59 42.21408 -83.35011 645 ft 6 kts 328°
2026-05-06 02:00 42.21430 -83.35030 644 ft 3 kts 329°
2026-05-06 02:00 42.21489 -83.35078 645 ft 16 kts 328°
2026-05-06 02:00 42.21584 -83.35170 644 ft 18 kts 318°
2026-05-06 02:00 42.21680 -83.35288 643 ft 20 kts 320°
2026-05-06 02:01 42.21800 -83.35342 643 ft 16 kts 330°
2026-05-06 02:01 42.21824 -83.35475 646 ft 15 kts 283°
2026-05-06 02:01 42.21903 -83.35567 643 ft 15 kts 328°
2026-05-06 02:01 42.21984 -83.35575 643 ft 13 kts 28°
2026-05-06 02:02 42.22066 -83.35514 644 ft 14 kts 29°
2026-05-06 02:02 42.22156 -83.35447 644 ft 15 kts 28°
2026-05-06 02:02 42.22254 -83.35375 645 ft 17 kts 28°
2026-05-06 02:02 42.22346 -83.35292 644 ft 15 kts 32°
2026-05-06 02:03 42.22439 -83.35222 644 ft 16 kts 28°
2026-05-06 02:03 42.22540 -83.35148 644 ft 17 kts 29°
2026-05-06 02:03 42.22645 -83.35065 644 ft 16 kts 44°
2026-05-06 02:03 42.22664 -83.34957 645 ft 9 kts 39°
2026-05-06 02:04 42.22725 -83.34907 644 ft 12 kts 28°
2026-05-06 02:04 42.22812 -83.34844 644 ft 16 kts 28°
2026-05-06 02:04 42.22873 -83.34797 644 ft 8 kts 43°
2026-05-06 02:04 42.22875 -83.34751 644 ft 5 kts 118°
2026-05-06 02:05 42.22862 -83.34719 645 ft 3 kts 119°
2026-05-06 02:05 42.22856 -83.34707 644 ft 0 kts 119°